Hourly Data Report for October 03, 2017

All times are specified in Local Standard Time (LST). Add 1 hour to adjust for Daylight Saving Time where and when it is observed.

TRACADIE
NOVA SCOTIA

45°36'30.080" N
61°40'47.020" W
66.70 m
8205895
71308
XTD

Download Data

Hourly Data (October 2017)
Hourly Data Report for October 3, 2017
Temp Definition
°C
Dew Point Temp Definition
°C
Rel Hum Definition
%
Wind Dir Definition
10's deg

Wind Spd Definition
km/h
Visibility Definition
km
Stn Press Definition
kPa
Hmdx Definition


Wind Chill Definition


Weather Definition


TIME
00:00 11.4 5.0 65 2 28   102.26     LegendNANA
01:00 11.1 5.8 70 3 15   102.32     LegendNANA
02:00 11.5 5.0 64 1 19   102.37     LegendNANA
03:00 11.9 5.3 64 1 23   102.41     LegendNANA
04:00 11.9 5.2 63 36 24   102.47     LegendNANA
05:00 12.2 4.1 58 35 22   102.53     LegendNANA
06:00 12.1 4.4 59 36 24   102.57     LegendNANA
07:00 12.2 5.7 65 36 25   102.61     LegendNANA
08:00 13.1 6.8 66 35 22   102.67     LegendNANA
09:00 13.6 7.1 65 36 19   102.68     LegendNANA
10:00 14.1 7.5 64 35 19   102.71     LegendNANA
11:00 15.1 8.1 63 34 20   102.70     LegendNANA
12:00 14.2 5.8 57 34 19   102.70     LegendNANA
13:00 13.0 5.1 58 34 20   102.65     LegendNANA
14:00 12.5 5.5 62 33 18   102.65     LegendNANA
15:00 12.0 5.0 62 33 18   102.56     LegendNANA
16:00 11.2 4.5 63 34 13   102.46     LegendNANA
17:00 11.1 5.3 68 31 6   102.42     LegendNANA
18:00 9.8 5.7 76 25 7   102.42     LegendNANA
19:00 9.6 5.4 75 24 8   102.44     LegendNANA
20:00 9.2 6.4 83 23 10   102.41     LegendNANA
21:00 8.3 6.0 85 22 9   102.36     LegendNANA
22:00 8.3 6.1 86 21 10   102.27     LegendNANA
23:00 8.0 5.8 86 20 13   102.24     LegendNANA

Notes on Data Quality.

Legend

  • E = Estimated
  • M = Missing
  • NA = Not Available
  • ‡ = Partner data that is not subject to review by the National Climate Archives
Date modified: